[[{"header":{"parameterUnit":"m.s-1","parameterCategory":1,"la1":30.2991,"la2":30.254,"lo1":-89.0895,"lo2":-89.0444,"dy":0.0017,"dx":0.0017,"nx":28,"ny":28,"refTime":"2023-09-21T03:00:00:Z","depth":0,"parameterNumber":2,"parameterNumberName":"U-component_of_WINDS"},"data":[0,0,0,0,0,0,0,0,0,0,0,0,0,0,0,0,0,0,0,0,0,0,0,0,0,0,0,0,0,0,0,0,0,0,0,0,0,0,0,0,0,0,0,0,0,0,0,0,0,0,0,0,0,0,0,0,0,0,-2.0981,-2.0981,0,-2.0988,-2.0988,-2.0988,-2.0907,-2.0905,-2.0903,-2.0901,-2.0912,-2.0914,-2.0916,0,0,0,0,0,0,0,0,0,0,0,0,0,-2.0901,-2.0903,-2.0981,-2.0981,-2.0981,-2.0988,-2.0988,-2.0988,-2.0908,-2.0905,-2.0902,-2.09,-2.0911,-2.0914,-2.0916,0,0,0,0,0,0,0,0,0,0,0,0,0,-2.0925,-2.0904,-2.0981,-2.0941,-2.0938,-2.0988,-2.0988,-2.0988,-2.0908,-2.0905,-2.0902,-2.0898,-2.091,-2.0913,-2.0917,-2.1005,0,0,-2.0928,-2.0929,0,0,0,0,0,0,0,0,-2.0924,-2.0928,-2.0947,-2.0944,-2.094,-2.0943,-2.0964,-2.0994,-2.0909,-2.092,-2.0901,-2.0897,-2.0925,-2.0927,-2.0936,-2.1006,-2.1006,-2.0928,-2.093,-2.0932,-2.0933,0,0,0,0,0,0,0,-2.0922,-2.0927,-2.0983,-2.0948,-2.0943,-2.0925,-2.0925,-2.0969,-2.0941,-2.0919,-2.0913,-2.0914,-2.0923,-2.0933,-2.0936,-2.1006,-2.0928,-2.0931,-2.0933,-2.0935,-2.1152,-2.1155,0,0,0,0,0,0,-2.0925,-2.0926,-2.0983,-2.0984,-2.0924,-2.0929,-2.0929,-2.0946,-2.094,-2.0936,-2.0917,-2.0911,-2.0928,-2.0931,-2.0936,-2.104,-2.0932,-2.0935,-2.0937,-2.1148,-2.1152,-2.1156,0,0,0,0,0,0,-2.0924,-2.0931,-2.0983,-2.0953,-2.0959,-2.0934,-2.0954,-2.0948,-2.0957,-2.0939,-2.0934,-2.0932,-2.0926,-2.0931,-2.0989,-2.1039,-2.0936,-2.094,-2.1144,-2.1149,-2.1154,-2.1249,0,0,0,0,0,0,-2.0922,-2.0931,-2.0963,-2.0955,-2.096,-2.1035,-2.0957,-2.095,-2.0963,-2.0955,-2.0952,-2.0949,-2.0923,-2.0984,-2.0992,-2.1042,-2.0942,-2.1139,-2.1146,-2.1153,-2.1241,-2.1257,-2.127,0,0,0,0,0,-2.0919,-2.099,-2.0965,-2.0973,-2.1,-2.1038,-2.1041,-2.101,-2.0968,-2.1001,-2.099,-2.0949,-2.1032,-2.0991,-2.0999,-2.1051,-2.1136,-2.1144,-2.1152,-2.1234,-2.1254,-2.127,0,0,0,0,0,0,-2.1006,-2.0988,-2.0961,-2.103,-2.1036,-2.1024,-2.1065,-2.1031,-2.105,-2.1041,-2.1003,-2.1003,-2.1068,-2.1065,-2.1019,-2.1137,-2.1077,-2.1087,-2.1136,-2.1155,-2.1169,-2.1168,-2.0945,0,0,0,0,0,-2.1033,-2.1064,-2.1047,-2.111,-2.1115,-2.109,-2.1105,-2.108,-2.1085,-2.1088,-2.108,-2.1088,-2.1116,-2.1135,-2.116,-2.1241,-2.124,-2.1281,-2.1295,-2.1307,-2.1317,-2.1361,-2.1379,-2.1183,-2.1183,-2.1183,0,0,-2.1089,-2.1083,-2.1105,-2.1128,-2.1129,-2.1164,-2.1092,-2.1131,-2.1157,-2.1094,-2.1148,-2.1144,-2.115,-2.122,-2.125,-2.122,-2.1371,-2.1318,-2.1327,-2.133,-2.1371,-2.139,-2.1406,-2.1189,-2.1188,-2.1187,0,0,-2.1209,-2.1208,-2.126,-2.1264,-2.1267,-2.125,-2.1263,-2.1257,-2.1251,-2.1305,-2.1259,-2.129,-2.1338,-2.1345,-2.1355,-2.148,-2.1444,-2.1489,-2.1565,-2.1609,-2.1624,-2.1638,-2.1683,-2.17,-2.1499,-2.1499,-2.1499,0,-2.1279,-2.1327,-2.1292,-2.1335,-2.1346,-2.1291,-2.1345,-2.135,-2.1363,-2.1373,-2.1338,-2.1399,-2.1399,-2.1471,-2.1501,-2.1511,-2.1526,-2.1489,-2.1625,-2.1638,-2.165,-2.1693,-2.171,-2.1504,-2.1504,-2.1503,-2.1503,0,-2.1414,-2.1449,-2.1491,-2.1503,-2.152,-2.1568,-2.1542,-2.1563,-2.1538,-2.1526,-2.1583,-2.1581,-2.1605,-2.162,-2.1596,-2.1689,-2.167,-2.1631,-2.1569,-2.1675,-2.1714,-2.1731,-2.1512,-2.151,-2.1509,-2.1507,0,0,-2.1587,-2.158,-2.1596,-2.1602,-2.1602,-2.1629,-2.1676,-2.1699,-2.1719,-2.173,-2.1769,-2.1812,-2.1776,-2.1787,-2.1764,-2.1802,-2.1903,-2.1758,-2.1757,-2.1785,-2.2007,-2.2036,-2.2056,-2.1879,-2.1882,-2.1884,-2.2006,0,-2.1704,-2.1782,-2.1753,-2.1833,-2.1866,-2.1815,-2.1856,-2.1862,-2.1852,-2.1879,-2.1869,-2.19,-2.185,-2.1857,-2.1892,-2.1883,-2.1947,-2.1874,-2.1916,-2.1918,-2.1916,-2.2076,-2.2108,-2.2223,-2.2022,-2.2024,-2.2026,0,-2.1851,-2.1867,-2.1951,-2.1948,-2.196,-2.1997,-2.2017,-2.2043,-2.205,-2.204,-2.2054,-2.2022,-2.207,-2.2009,-2.2074,-2.2026,-2.2042,-2.204,-2.2044,-2.2046,-2.1978,-2.2084,-2.2259,-2.2276,-2.205,-2.2048,-2.2047,0,-2.197,-2.2013,-2.2069,-2.2075,-2.2072,-2.21,-2.21,-2.2103,-2.2119,-2.2137,-2.2147,-2.2171,-2.2184,-2.2204,-2.218,-2.2138,-2.225,-2.2187,-2.2245,-2.2245,-2.227,-2.2269,-2.245,-2.2281,-2.228,-2.228,-2.228,0,-2.2104,-2.2157,-2.2122,-2.2157,-2.2216,-2.2183,-2.2243,-2.2238,-2.2241,-2.2275,-2.2233,-2.2266,-2.2233,-2.2264,-2.2246,-2.2304,-2.231,-2.2305,-2.2299,-2.2308,-2.2309,-2.2318,-2.2309,-2.2285,-2.2284,-2.2283,-2.2282,0,-2.2246,-2.2224,-2.2282,-2.2275,-2.2275,-2.2319,-2.2313,-2.2346,-2.2333,-2.2377,-2.2386,-2.2367,-2.2401,-2.238,-2.2414,-2.2402,-2.2478,-2.2462,-2.2476,-2.2471,-2.2531,-2.2525,-2.2724,-2.2749,-2.2563,-2.2565,-2.2567,0,-2.2332,-2.2372,-2.237,-2.2389,-2.2392,-2.2423,-2.244,-2.241,-2.2429,-2.244,-2.2472,-2.2502,-2.2524,-2.2582,-2.2572,-2.2599,-2.2583,-2.2651,-2.2587,-2.2595,-2.2585,-2.2583,-2.2587,-2.2664,-2.2666,-2.2668,-2.2669,0,-2.2489,-2.2477,-2.2501,-2.2523,-2.2544,-2.2559,-2.2572,-2.2591,-2.256,-2.2584,-2.2618,-2.2636,-2.2671,-2.2703,-2.2726,-2.2727,-2.2694,-2.269,-2.2705,-2.2714,-2.2721,-2.2718,-2.2511,-2.2685,-2.2683,-2.2682,-2.2681,-2.2681,-2.2606,-2.264,-2.2643,-2.2673,-2.2679,-2.2692,-2.2723,-2.2715,-2.2742,-2.2768,-2.2749,-2.279,-2.2797,-2.2824,-2.2831,-2.2863,-2.2836,-2.2858,-2.2863,-2.2869,-2.2877,-2.2716,-2.2868,-2.2867,-2.2867,-2.2866,-2.2866,0,-2.2761,-2.2761,-2.2788,-2.2807,-2.2831,-2.2797,-2.2809,-2.2832,-2.2868,-2.2877,-2.29,-2.294,-2.2971,-2.2965,-2.2992,-2.302,-2.3006,-2.3028,-2.3026,-2.3027,-2.29,-2.2884,-2.304,-2.304,-2.304,-2.304,-2.304,-2.3039,-2.2844,-2.2899,-2.2888,-2.2947,-2.2947,-2.2986,-2.2996,-2.3009,-2.3016,-2.3062,-2.3087,-2.3083,-2.3086,-2.3115,-2.3142,-2.3139,-2.3152,-2.318,-2.3173,-2.3053,-2.3036,-2.302,-2.3005,-2.3183,-2.3184,-2.3297,-2.3298,-2.3299]},{"header":{"parameterUnit":"m.s-1","parameterCategory":1,"la1":30.2991,"la2":30.254,"lo1":-89.0895,"lo2":-89.0444,"dy":0.0017,"dx":0.0017,"nx":28,"ny":28,"refTime":"2023-09-21T03:00:00:Z","depth":0,"parameterNumber":3,"parameterNumberName":"V-component_of_WINDS"},"data":[0,0,0,0,0,0,0,0,0,0,0,0,0,0,0,0,0,0,0,0,0,0,0,0,0,0,0,0,0,0,0,0,0,0,0,0,0,0,0,0,0,0,0,0,0,0,0,0,0,0,0,0,0,0,0,0,0,0,1.9225,1.9225,0,1.9164,1.9164,1.9163,1.9151,1.9152,1.9152,1.9153,1.9082,1.908,1.9078,0,0,0,0,0,0,0,0,0,0,0,0,0,1.9326,1.9324,1.9225,1.9224,1.9224,1.9164,1.9163,1.9163,1.9151,1.9152,1.9153,1.9153,1.9083,1.908,1.9077,0,0,0,0,0,0,0,0,0,0,0,0,0,1.9275,1.9323,1.9225,1.9211,1.9209,1.9165,1.9163,1.9162,1.9151,1.9152,1.9153,1.9154,1.9084,1.9081,1.9077,1.904,0,0,1.9066,1.9065,0,0,0,0,0,0,0,0,1.9278,1.9271,1.9214,1.9212,1.921,1.9166,1.9173,1.9121,1.9151,1.9173,1.9153,1.9154,1.9109,1.9104,1.909,1.9036,1.9033,1.9066,1.9064,1.9062,1.9061,0,0,0,0,0,0,0,1.9281,1.9274,1.9201,1.9213,1.9211,1.9206,1.9199,1.9163,1.9137,1.9171,1.917,1.9164,1.9108,1.9094,1.9088,1.9032,1.9066,1.9063,1.9061,1.9059,1.8945,1.8944,0,0,0,0,0,0,1.9288,1.9277,1.9203,1.9199,1.9247,1.9203,1.9196,1.9179,1.9138,1.9132,1.9163,1.9163,1.9099,1.9093,1.9086,1.9039,1.9062,1.9059,1.9057,1.8946,1.8945,1.8944,0,0,0,0,0,0,1.9291,1.9282,1.9205,1.9238,1.9228,1.9201,1.9182,1.9178,1.9163,1.9132,1.9126,1.9153,1.91,1.9091,1.9052,1.9037,1.9057,1.9054,1.8947,1.8946,1.8945,1.8946,0,0,0,0,0,0,1.9294,1.9283,1.927,1.9238,1.9226,1.9174,1.9181,1.9176,1.9158,1.9158,1.9121,1.9116,1.91,1.9057,1.9048,1.9032,1.9051,1.8948,1.8947,1.8945,1.8947,1.8945,1.8943,0,0,0,0,0,1.9297,1.927,1.9269,1.926,1.9209,1.9173,1.9166,1.9151,1.9157,1.9143,1.9123,1.9117,1.9041,1.9053,1.9043,1.9026,1.8949,1.8947,1.8945,1.8948,1.8946,1.8943,0,0,0,0,0,0,1.9298,1.9266,1.9264,1.9226,1.9203,1.9172,1.9153,1.9148,1.912,1.9121,1.9101,1.9092,1.9055,1.9036,1.9051,1.8988,1.8995,1.8991,1.9001,1.8998,1.8996,1.9,1.9048,0,0,0,0,0,1.9294,1.927,1.9243,1.9212,1.9201,1.9179,1.9163,1.9154,1.9127,1.9116,1.9093,1.9066,1.9036,1.9016,1.8987,1.8946,1.8937,1.8929,1.8927,1.8925,1.8921,1.8898,1.8894,1.8937,1.8937,1.8938,0,0,1.9285,1.9265,1.925,1.9212,1.9193,1.9166,1.9171,1.9142,1.9122,1.9111,1.9074,1.9056,1.9024,1.8984,1.8965,1.8968,1.8908,1.8923,1.8922,1.8918,1.8896,1.8891,1.8888,1.8936,1.8936,1.8937,0,0,1.9255,1.9238,1.9211,1.9193,1.9165,1.9151,1.9145,1.9115,1.9104,1.9067,1.9059,1.9033,1.8982,1.896,1.8942,1.8907,1.89,1.8898,1.8886,1.8864,1.886,1.8857,1.8844,1.8839,1.8894,1.8894,1.8894,0,1.9246,1.9209,1.9197,1.917,1.9153,1.9146,1.9118,1.91,1.9063,1.905,1.9055,1.8992,1.8969,1.8925,1.8917,1.8902,1.8893,1.8901,1.8862,1.8859,1.8856,1.8843,1.8838,1.8894,1.8894,1.8894,1.8894,0,1.9199,1.9173,1.9155,1.9123,1.9104,1.9076,1.9059,1.9041,1.9034,1.9019,1.8981,1.8955,1.8921,1.891,1.8901,1.8864,1.8866,1.8867,1.8873,1.8852,1.8839,1.8834,1.8894,1.8894,1.8894,1.8894,0,0,1.9165,1.913,1.9123,1.9109,1.9079,1.9058,1.903,1.8999,1.8984,1.8959,1.8934,1.8892,1.8893,1.8873,1.8862,1.8843,1.8817,1.8846,1.8845,1.884,1.8773,1.8772,1.8766,1.8813,1.8812,1.8812,1.8776,0,1.9131,1.9083,1.9073,1.9031,1.9006,1.9001,1.8976,1.8954,1.8941,1.8916,1.89,1.8871,1.8875,1.8862,1.8844,1.8824,1.8803,1.8827,1.8787,1.8786,1.8794,1.876,1.8758,1.8725,1.8771,1.877,1.8769,0,1.9084,1.9062,1.9018,1.8993,1.8982,1.8961,1.8933,1.891,1.8885,1.8876,1.8856,1.8847,1.8816,1.8827,1.8783,1.88,1.8783,1.8771,1.877,1.8763,1.8775,1.8752,1.8714,1.8709,1.8761,1.8762,1.8763,0,1.9062,1.9021,1.899,1.8978,1.8948,1.8934,1.892,1.8896,1.8879,1.8854,1.8842,1.8813,1.8796,1.8773,1.8757,1.8766,1.8714,1.8723,1.8704,1.8704,1.8691,1.8692,1.8649,1.8684,1.8684,1.8684,1.8684,0,1.9024,1.8997,1.898,1.8961,1.8931,1.8919,1.8889,1.8875,1.8854,1.8831,1.8824,1.8801,1.8782,1.8757,1.8744,1.8709,1.8702,1.8692,1.8689,1.8692,1.8693,1.8679,1.868,1.8683,1.8683,1.8683,1.8683,0,1.8993,1.8981,1.8947,1.8923,1.8917,1.8895,1.8874,1.8854,1.8842,1.8812,1.8804,1.8783,1.8753,1.8736,1.8697,1.8688,1.8649,1.8647,1.8658,1.8656,1.8638,1.864,1.8584,1.8576,1.8617,1.8617,1.8616,0,1.8969,1.8949,1.8924,1.8909,1.8897,1.8873,1.8856,1.8844,1.8827,1.8799,1.8782,1.8753,1.8728,1.868,1.866,1.863,1.8626,1.8609,1.8621,1.8626,1.8624,1.8625,1.8623,1.8606,1.8606,1.8605,1.8605,0,1.8926,1.8922,1.89,1.8877,1.8858,1.8838,1.8818,1.8806,1.879,1.8771,1.8742,1.8724,1.8686,1.8656,1.8625,1.8609,1.8603,1.8602,1.8596,1.8598,1.8605,1.86,1.8651,1.8602,1.8603,1.8603,1.8603,1.8603,1.8897,1.8879,1.886,1.8836,1.882,1.8802,1.8783,1.877,1.8746,1.8717,1.8711,1.868,1.8656,1.8615,1.8599,1.8573,1.8575,1.8567,1.8564,1.8562,1.8561,1.8611,1.8567,1.8567,1.8567,1.8567,1.8567,0,1.8853,1.8841,1.882,1.8794,1.8775,1.8776,1.8754,1.8737,1.8711,1.8691,1.8669,1.8635,1.8607,1.8586,1.8557,1.854,1.8537,1.8533,1.8532,1.8529,1.8561,1.8568,1.8536,1.8536,1.8536,1.8536,1.8536,1.8536,1.8828,1.8798,1.8792,1.8754,1.8742,1.8714,1.8702,1.8685,1.8669,1.8633,1.8611,1.8599,1.8578,1.8547,1.8521,1.8516,1.8504,1.85,1.8494,1.8523,1.8526,1.853,1.8537,1.8498,1.8498,1.8464,1.8463,1.8463]}]]